This demonstration page uses our WeatherBlox Daily Observations layout. Learn more.

Left ArrowRight Arrow

Hourly Observations for January 25, 2022

Temp ( °F °C ) Dew Point ( °F °C ) Humidity (%) Winds ( mph kmh ) Pressure ( in mb ) Visibility ( mi km ) Precip ( " mm )
12:15 am 00:15 Mostly Cloudy 20 -6.6 12 -10.9 72 72 E 7 11 30.31 1026 10 16 0.00 0.00
12:35 am 00:35 Cloudy 19 -7 12 -11 73 73 E 7 11 30.31 1026 10 16 0.00 0.00
12:55 am 00:55 Cloudy 19 -7 12 -11 73 73 E 8 13 30.31 1026 10 16 0.00 0.00
1:15 am 01:15 Cloudy 19 -7 12 -11.3 72 72 ENE 8 13 30.31 1026 10 16 0.00 0.00
1:35 am 01:35 Cloudy 19 -7.1 11 -11.6 71 71 E 7 11 30.33 1027 10 16 0.00 0.00
1:55 am 01:55 Cloudy 19 -7.1 11 -11.8 69 69 E 8 13 30.33 1027 10 16 0.00 0.00
2:15 am 02:15 Cloudy 19 -7.2 10 -12.4 67 67 E 6 9 30.34 1027 10 16 0.00 0.00
2:35 am 02:35 Cloudy with Light Snow 19 -7.5 10 -12.2 69 69 E 6 9 30.34 1028 10 16 0.00 0.00
2:55 am 02:55 Cloudy with Light Snow 18 -7.7 10 -12.1 71 71 E 5 7 30.36 1028 10 16 0.00 0.00
3:15 am 03:15 Cloudy with Light Snow 18 -8 11 -11.8 74 74 E 7 11 30.36 1028 5 8 0.00 0.00
3:35 am 03:35 Cloudy with Light Snow 17 -8.2 11 -11.5 77 77 ESE 7 11 30.36 1028 3 5 0.00 0.00
3:55 am 03:55 Cloudy with Light Snow 17 -8.4 12 -11 82 82 ESE 6 9 30.36 1028 1 2 0.00 0.00
4:15 am 04:15 Cloudy with Light Snow 17 -8.5 13 -10.7 84 84 SE 6 9 30.37 1028 2 3 0.00 0.00
4:35 am 04:35 Cloudy with Light Snow 16 -8.7 12 -10.9 84 84 E 6 9 30.38 1029 3 4 0.00 0.00
4:55 am 04:55 Cloudy with Light Snow 16 -8.8 12 -11 84 84 E 6 9 30.38 1029 4 6 0.00 0.00
5:15 am 05:15 Cloudy with Light Snow 16 -9 12 -11.2 84 84 ESE 7 11 30.38 1029 4 6 0.00 0.00
5:35 am 05:35 Cloudy 16 -9.1 11 -11.5 83 83 ESE 8 13 30.39 1029 10 16 0.00 0.00
5:55 am 05:55 Cloudy with Light Snow 15 -9.3 11 -11.6 84 84 ESE 8 13 30.39 1029 10 16 0.00 0.00
6:15 am 06:15 Cloudy 15 -9.5 11 -11.7 84 84 E 6 9 30.42 1030 10 16 0.00 0.00
6:35 am 06:35 Cloudy 15 -9.5 10 -12 82 82 ESE 6 9 30.42 1030 10 16 0.00 0.00
6:55 am 06:55 Cloudy 15 -9.5 10 -12 82 82 E 6 9 30.44 1031 10 16 0.00 0.00
7:15 am 07:15 Cloudy 15 -9.4 10 -12 82 82 SE 5 7 30.45 1031 10 16 0.00 0.00
7:35 am 07:35 Cloudy 15 -9.5 10 -12 82 82 SE 7 11 30.44 1031 10 16 0.00 0.00
7:55 am 07:55 Cloudy 15 -9.5 11 -11.7 84 84 SSE 5 7 30.44 1031 10 16 0.00 0.00
8:15 am 08:15 Cloudy 15 -9.3 11 -11.6 84 84 SE 5 7 30.44 1031 10 16 0.00 0.00
8:35 am 08:35 Cloudy 15 -9.3 10 -12 81 81 SE 5 7 30.45 1031 10 16 0.00 0.00
8:55 am 08:55 Cloudy 16 -9.1 10 -12 80 80 SE 6 9 30.46 1032 10 16 0.00 0.00
9:15 am 09:15 Cloudy 16 -9 10 -12.1 78 78 SSE 6 9 30.46 1032 10 16 0.00 0.00
9:35 am 09:35 Cloudy 16 -9 10 -12 79 79 S 6 9 30.48 1032 10 16 0.00 0.00
9:55 am 09:55 Cloudy 16 -8.9 10 -12.1 78 78 SE 3 6 30.49 1033 10 16 0.00 0.00
10:15 am 10:15 Cloudy 16 -8.7 11 -11.8 79 79 S 3 6 30.50 1033 10 16 0.00 0.00
10:35 am 10:35 Cloudy 17 -8.4 11 -11.6 78 78 Calm 30.51 1033 10 16 0.00 0.00
10:55 am 10:55 Cloudy with Light Snow 17 -8.3 11 -11.5 78 78 Calm 30.51 1033 7 11 0.00 0.00
11:15 am 11:15 Cloudy with Light Snow 17 -8.1 12 -11 80 80 Calm 30.52 1034 3 4 0.00 0.00
11:35 am 11:35 Cloudy with Light Snow 18 -7.6 13 -10.7 79 79 Calm 30.52 1033 2 3 0.00 0.00
11:55 am 11:55 Cloudy with Light Snow 19 -7.5 13 -10.6 79 79 Calm 30.52 1033 5 8 0.00 0.00
12:15 pm 12:15 Cloudy with Light Snow 18 -7.7 13 -10.3 82 82 Calm 30.52 1033 1 2 0.00 0.00
12:35 pm 12:35 Cloudy with Light Snow 18 -7.6 13 -10.3 81 81 Calm 30.52 1033 10 16 0.00 0.00
12:55 pm 12:55 Cloudy with Light Snow 19 -7.5 13 -10.3 81 81 Calm 30.52 1033 10 16 0.00 0.00
1:15 pm 13:15 Cloudy 19 -7.5 13 -10.5 79 79 Calm 30.52 1033 10 16 0.00 0.00
1:35 pm 13:35 Cloudy 19 -7.3 13 -10.3 79 79 Calm 30.51 1033 10 16 0.00 0.00
1:55 pm 13:55 Cloudy with Mist and Fog 19 -7.4 15 -9.5 85 85 Calm 30.51 1033 3 5 0.00 0.00
2:15 pm 14:15 Cloudy with Mist and Fog 19 -7.3 15 -9.3 86 86 NE 3 6 30.51 1033 5 8 0.00 0.00
2:35 pm 14:35 Cloudy 19 -7.2 15 -9.3 85 85 Calm 30.51 1033 10 16 0.00 0.00
2:55 pm 14:55 Cloudy 19 -7.1 15 -9.4 84 84 SE 3 6 30.51 1033 10 16 0.00 0.00
3:15 pm 15:15 Cloudy 19 -7 15 -9.6 82 82 Calm 30.52 1034 10 16 0.00 0.00
3:35 pm 15:35 Cloudy 20 -6.8 15 -9.4 82 82 SE 3 6 30.52 1033 10 16 0.00 0.00
3:55 pm 15:55 Cloudy 20 -6.8 15 -9.3 83 83 SSE 3 6 30.53 1034 10 16 0.00 0.00
4:15 pm 16:15 Cloudy 20 -6.8 15 -9.3 83 83 SSE 3 6 30.54 1034 10 16 0.00 0.00
4:35 pm 16:35 Cloudy with Light Snow 20 -6.8 15 -9.5 81 81 Calm 30.54 1034 10 16 0.00 0.00
4:55 pm 16:55 Cloudy 20 -6.6 15 -9.6 79 79 Calm 30.54 1034 10 16 0.00 0.00
5:15 pm 17:15 Cloudy 20 -6.7 15 -9.5 81 81 S 3 6 30.55 1034 10 16 0.00 0.00
5:35 pm 17:35 Cloudy 20 -6.7 15 -9.5 81 81 Calm 30.55 1034 10 16 0.00 0.00
5:55 pm 17:55 Cloudy 20 -6.7 15 -9.5 81 81 Calm 30.55 1034 10 16 0.00 0.00
6:15 pm 18:15 Cloudy 20 -6.7 15 -9.5 81 81 S 3 6 30.56 1035 10 16 0.00 0.00
6:35 pm 18:35 Cloudy 20 -6.7 15 -9.3 82 82 SSW 5 7 30.56 1035 10 16 0.00 0.00
6:55 pm 18:55 Cloudy 19 -7 15 -9.3 84 84 SSW 5 7 30.57 1035 10 16 0.00 0.00
7:15 pm 19:15 Cloudy 20 -6.9 15 -9.2 84 84 SSW 5 7 30.57 1035 10 16 0.00 0.00
7:35 pm 19:35 Cloudy 20 -6.8 15 -9.3 83 83 SW 3 6 30.58 1036 10 16 0.00 0.00
7:55 pm 19:55 Cloudy 20 -6.8 16 -9 85 85 SW 3 6 30.58 1036 10 16 0.00 0.00
8:15 pm 20:15 Cloudy 20 -6.8 16 -9 85 85 SSW 5 7 30.58 1036 10 16 0.00 0.00
8:35 pm 20:35 Cloudy 20 -6.8 16 -9 85 85 SW 3 6 30.59 1036 10 16 0.00 0.00
8:55 pm 20:55 Cloudy 20 -6.8 16 -9 85 85 SW 5 7 30.59 1036 10 16 0.00 0.00
9:15 pm 21:15 Cloudy 20 -6.8 16 -9 85 85 SW 5 7 30.59 1036 10 16 0.00 0.00
9:35 pm 21:35 Cloudy 20 -6.8 16 -9 85 85 SSW 5 7 30.58 1036 10 16 0.00 0.00
9:55 pm 21:55 Cloudy 20 -6.7 17 -8.6 87 87 WSW 5 7 30.58 1035 10 16 0.00 0.00
10:15 pm 22:15 Cloudy 20 -6.7 17 -8.5 87 87 SSW 5 7 30.58 1035 10 16 0.00 0.00
10:35 pm 22:35 Cloudy 20 -6.7 17 -8.4 88 88 SW 5 7 30.58 1035 10 16 0.00 0.00
10:55 pm 22:55 Cloudy 20 -6.8 17 -8.5 88 88 SW 8 13 30.58 1036 10 16 0.00 0.00
11:15 pm 23:15 Cloudy 20 -6.8 17 -8.5 88 88 SSW 9 15 30.56 1035 10 16 0.00 0.00
11:35 pm 23:35 Cloudy 20 -6.8 17 -8.6 87 87 SSW 9 15 30.55 1034 10 16 0.00 0.00
11:55 pm 23:55 Cloudy 20 -6.6 17 -8.5 87 87 SSW 8 13 30.55 1034 10 16 0.00 0.00

Powered by AerisWeather